GPS BIII-7 (PRN 01)

Last updated on Wed Jun 24 2026 00:03:27 GMT+0000 (Coordinated Universal Time)

1 62339U 24242A 26173.07548361 -.00000100 00000+0 00000+0 0 9990 2 62339 54.8465 333.9823 0017575 4.4653 174.2883 2.00571761 11357
UTC large
Height (km)
Speed (km/s)
/
Latitude / Longitude
Inclination (degrees)
Orbital Period (minutes)
Azimuth
Elevation
Range (km)
Doppler Factor

Next 0 passes for location: London (51.5072 / 0.1276)

No passes found over London.
GPS BIII-7 (PRN 01)